sat.trackr.live / text

‹ back to catalog

KUIPER-00108

NORAD 65146 · 2025-171Q

PAYLOAD ACTIVE UNKNOWN

§ Identity

Operator
Country
US
Launch date
2025-08-11
Launch site
AFETR
Launch vehicle
Mass (kg)
RCS (m²)

External: N2YO · Heavens-Above · Gunter

§ Orbital elements

Epoch: 2026-05-25T02:02:01.271616Z

Period
97.30 min
Inclination
51.9010°
Eccentricity
0.0000296
Mean motion
14.79941125 rev/d
Perigee alt
629.3 km
Apogee alt
629.7 km
Semi-major
7,007.6 km
B*
2.9725e-4
RAAN
182.8055°
Arg perigee
53.9244°
Mean anomaly
306.1746°
Rev number
4,417

§ Raw data

KUIPER-001081 65146U 25171Q   26145.08473694  .00002046  00000+0  29725-3 0  99962 65146  51.9010 182.8055 0000296  53.9244 306.1746 14.79941125 44179

JSON: /api/v1/satellites/65146 · /tle

For live sub-satellite position, see the globe view (requires WebGL).

§ Visibility from observer

Set your observer location to see the next 7 days of passes ≥ 10°. The values pass through the URL so the page stays shareable.

No JS? Fill the form by hand. The geolocation button needs JavaScript.